Find LaoSat 1

NORAD ID: 41034 Int'l Des: 2015-067 Owner: LANAST/APMT Country: LA operational
HEOCIRCULARGSOGEO

現在のビュー

3D地球を読み込み中...

About LaoSat 1

LaoSat 1 (NORAD 41034) is a satellite launched Nov 20, 2015 by LANAST/APMT of LA. It operates in HEO, CIRCULAR, GSO, GEO orbit with a mass of 5086.00 kg.

次回通過

Passes for default location (London). Set your location on the main map for personalized predictions.

高度履歴

Loading altitude history...

軌道要素

1 41034U 15067A 26194.87158412 -.00000348 00000-0 00000+0 0 9994
2 41034 0.0665 239.6742 0002156 182.3541 311.9867 1.00267927 39126
Epoch: Jul 13, 2026 • Age: 13 hours

現在のステータス

高度 35794.6 km
遠地点 / 近地点 N/A
速度 3.07 km/s
衛星直下点 -0.04°S, 128.52°E
打ち上げ日 Nov 20, 2015
運用期間 10.6 years
タイプ other

技術仕様

分類 Payload
質量 5086.00 kg
乾燥質量 2500.00 kg
総質量 5086.00 kg
長さ 5.00 m
直径 2.50 m
スパン 30.00 m
形状 Box+ 2 panels
製造者 CAST
バスタイプ DFH-3B
フェーズステータス In Orbit
所有者/国 LANAST/APMT/LA

Most Searched